{"data":{"norad_id":52880,"epoch":"2026-05-25T02:14:49.358976Z","epoch_age_seconds":66191,"freshness":"FRESH","line1":"1 52880U 22062BC  26145.09362684 -.00000443  00000+0 -97205-5 0  9991","line2":"2 52880  53.2129  31.1311 0001197  76.3014 283.8111 15.08836983217607","mean_motion":15.08836983,"eccentricity":0.0001197,"inclination_deg":53.2129,"raan_deg":31.1311,"arg_perigee_deg":76.3014,"mean_anomaly_deg":283.8111,"bstar":-9.7205e-6,"rev_number":21760,"period_min":95.437745510245,"perigee_km":538.9245393551,"apogee_km":540.58068212791,"semimajor_km":6917.8896107415,"source":"CELESTRAK","updated_at":"2026-05-25T13:38:17.271634Z"}}